Retour au catalogue

FENGYUN 1C DEB

ActifPO
NORAD 32162·DEBRIS·🇨🇳 China

Lancé May 10, 1999 depuis Taiyuan Satellite Launch Center

Loading…

Prochains Passages (prochaines 24 heures)

TLE

VieillissantSource: Space-Track

Époque: Sep 9, 2026, 11:13 UTC

1 32162U 99025CTG 26252.46782622  .00004540  00000-0  84063-3 0  9990
2 32162  99.4383 341.9308 0045546  73.3594 287.2598 14.65266295988793

Suivez FENGYUN 1C DEB en temps réel avec AllMySat

Download on the App Store